FW2430 Weather Reports


time (UTC)temp
C
wind
direction
speed
KPH
gust
KPH
rain 1hr
cm
rain 24hr
cm
rain mn
cm
humidity
%
barometer
mb
20260510031553 11 123 1.6 3.2 0.00 0.84 0.84 93 1006.9
20260510030006 11 123 0.0 4.8 0.00 0.84 0.84 93 1006.9
20260510024601 11 234 0.0 3.2 0.00 0.84 0.84 93 1006.9
20260510023026 11 235 0.0 3.2 0.00 0.84 0.84 93 1007.2
20260510021618 11 244 0.0 6.4 0.00 0.84 0.84 93 1007.0
20260510020034 11 227 0.0 4.8 0.00 0.84 0.84 93 1007.0
20260510014635 11 187 0.0 6.4 0.00 0.84 0.84 92 1006.7
20260510013056 12 264 0.0 4.8 0.00 0.84 0.84 92 1006.4
20260510011533 12 263 0.0 3.2 0.00 0.84 0.84 92 1006.3
20260510010116 12 264 3.2 12.9 0.00 0.84 0.84 92 1006.2
20260510004532 12 227 1.6 4.8 0.00 0.91 0.84 92 1006.2
20260510003129 12 213 1.6 6.4 0.00 0.91 0.84 91 1006.1
20260510001553 12 286 1.6 17.7 0.05 0.91 0.84 91 1005.9
20260510000016 12 217 4.8 19.3 0.20 0.91 0.84 91 1005.7
20260509234608 12 225 1.6 12.9 0.46 0.91 0.84 92 1005.6
20260509233033 12 275 3.2 19.3 0.84 0.91 0.84 92 1005.8
20260509231623 12 289 6.4 17.7 0.76 0.84 0.76 91 1006.6
20260509230054 12 279 8.0 30.6 0.64 0.71 0.64 89 1006.8
20260509224518 16 271 20.9 33.8 0.20 0.28 0.20 74 1007.0
20260509223113 19 215 8.0 25.7 0.00 0.08 0.00 58 1003.8
20260509221535 19 239 4.8 24.1 0.00 0.08 0.00 57 1003.5
20260509220135 20 224 0.0 0.0 0.00 0.08 0.00 55 1003.2
20260509214557 20 49 0.0 0.0 0.00 0.08 0.00 56 1003.1
20260509213020 21 222 0.0 0.0 0.00 0.08 0.00 54 1003.0
20260509211609 21 154 0.0 0.0 0.00 0.08 0.00 58 1003.1
20260509210034 21 165 0.0 0.0 0.00 0.08 0.00 58 1003.5
20260509204614 20 263 0.0 0.0 0.00 0.08 0.00 56 1003.9
20260509203029 20 215 3.2 16.1 0.00 0.08 0.00 56 1003.9
20260509201633 20 34 0.0 11.3 0.00 0.08 0.00 57 1004.1
20260509200105 21 178 0.0 0.0 0.00 0.08 0.00 58 1004.3
20260509194509 20 275 0.0 0.0 0.00 0.08 0.00 55 1004.6
20260509193109 20 28 0.0 0.0 0.00 0.08 0.00 58 1004.8
20260509191526 20 227 0.0 0.0 0.00 0.08 0.00 56 1004.9
20260509190110 20 161 0.0 0.0 0.00 0.08 0.00 58 1005.1
20260509184553 20 47 0.0 0.0 0.00 0.08 0.00 57 1005.0
20260509183130 20 79 0.0 0.0 0.00 0.08 0.00 61 1005.2
20260509181620 20 232 0.0 0.0 0.00 0.08 0.00 59 1005.5
20260509180027 20 227 0.0 0.0 0.00 0.08 0.00 59 1005.4
20260509174626 20 251 0.0 0.0 0.00 0.08 0.00 60 1005.5
20260509173059 19 176 0.0 0.0 0.00 0.08 0.00 59 1005.6
20260509171500 18 132 0.0 0.0 0.00 0.08 0.00 60 1005.8
20260509164526 18 257 0.0 0.0 0.00 0.08 0.00 62 1005.9
20260509163127 18 224 0.0 0.0 0.00 0.08 0.00 65 1006.1
20260509161538 17 213 0.0 0.0 0.00 0.08 0.00 68 1006.5
20260509160001 16 281 0.0 0.0 0.00 0.08 0.00 72 1006.6
20260509154552 17 212 0.0 0.0 0.00 0.08 0.00 72 1006.6
20260509153015 16 24 0.0 0.0 0.00 0.08 0.00 74 1006.6
20260509151626 16 242 0.0 0.0 0.00 0.08 0.00 76 1006.7
20260509150044 15 236 1.6 9.7 0.00 0.08 0.00 85 1006.9
20260509144521 14 253 6.4 16.1 0.00 0.08 0.00 83 1006.9
20260509143133 13 296 1.6 6.4 0.00 0.08 0.00 87 1006.9
20260509141552 13 282 1.6 9.7 0.00 0.08 0.00 88 1006.9
20260509140014 13 192 4.8 12.9 0.00 0.08 0.00 90 1007.1
20260509134617 13 148 0.0 4.8 0.00 0.08 0.00 92 1007.0
20260509133034 12 90 0.0 3.2 0.00 0.08 0.00 92 1007.1
20260509131626 12 263 0.0 6.4 0.00 0.08 0.00 92 1007.2
20260509130051 12 321 1.6 6.4 0.00 0.08 0.00 93 1007.2
20260509124504 12 223 1.6 6.4 0.00 0.08 0.00 94 1007.3
20260509123103 11 143 1.6 6.4 0.00 0.08 0.00 94 1007.5
20260509121522 11 59 0.0 6.4 0.00 0.08 0.00 94 1007.6
20260509120113 11 302 0.0 4.8 0.00 0.08 0.00 94 1007.7
20260509114529 11 293 1.6 6.4 0.00 0.08 0.00 94 1007.7
20260509113113 11 32 0.0 3.2 0.00 0.08 0.00 94 1007.6
20260509111530 11 49 1.6 4.8 0.00 0.08 0.00 94 1007.5
20260509110118 10 91 0.0 4.8 0.00 0.08 0.00 94 1007.5
20260509104543 10 88 0.0 3.2 0.00 0.08 0.00 94 1007.6
20260509103125 10 149 0.0 4.8 0.00 0.08 0.00 94 1007.5
20260509101617 10 184 0.0 4.8 0.00 0.08 0.00 94 1007.4
20260509100001 10 335 0.0 4.8 0.00 0.08 0.00 94 1007.5
20260509094606 10 46 0.0 4.8 0.00 0.08 0.00 94 1007.6
20260509093025 10 108 0.0 8.0 0.00 0.08 0.00 94 1007.6
20260509091618 10 53 1.6 6.4 0.00 0.08 0.00 94 1007.9
20260509090041 10 89 0.0 3.2 0.00 0.08 0.00 94 1007.9
20260509084629 10 340 0.0 4.8 0.00 0.08 0.00 94 1008.1
20260509083109 10 117 1.6 4.8 0.00 0.08 0.00 94 1008.1
20260509081541 10 271 0.0 6.4 0.00 0.08 0.00 94 1008.0
20260509080123 10 271 0.0 4.8 0.00 0.08 0.00 94 1008.0
20260509074546 10 98 0.0 4.8 0.00 0.08 0.00 94 1008.1
20260509073129 10 241 0.0 4.8 0.00 0.08 0.00 94 1008.1
20260509071558 10 84 0.0 8.0 0.00 0.08 0.00 94 1008.2
20260509070016 10 322 0.0 8.0 0.00 0.08 0.00 94 1008.3
20260509064620 10 175 0.0 4.8 0.00 0.08 0.00 93 1008.4
20260509063029 10 234 0.0 3.2 0.00 0.08 0.00 93 1008.4
20260509061615 10 103 1.6 4.8 0.00 0.08 0.00 93 1008.6
20260509060037 10 191 0.0 9.7 0.00 0.08 0.00 94 1008.6
20260509054625 10 350 0.0 4.8 0.00 0.08 0.00 93 1008.8
20260509053040 10 297 0.0 4.8 0.00 0.08 0.00 93 1009.0
20260509051509 10 98 0.0 4.8 0.00 0.08 0.00 93 1009.2
20260509050059 10 360 0.0 6.4 0.00 0.08 0.00 93 1009.3
20260509044524 10 66 1.6 6.4 0.00 0.08 0.00 93 1009.4
20260509043120 10 67 1.6 8.0 0.00 0.08 0.00 93 1009.5
20260509041609 10 97 1.6 6.4 0.00 0.08 0.00 93 1009.8
20260509040002 10 95 1.6 9.7 0.00 0.08 0.00 93 1009.9
20260509034616 10 103 0.0 6.4 0.00 0.08 0.08 93 1010.0
20260509033042 10 293 1.6 9.7 0.00 0.08 0.08 93 1010.1